Voltar ao catálogo

THORAD AGENA D DEB

AtivoSSO
NORAD 42517·DEBRIS·🇺🇸 United States

Lançado Apr 8, 1970 de Vandenberg Space Force Base

Loading…

Próximas Passagens (próximas 24 horas)

TLE

AtualizadoSource: Space-Track

Época: Sep 13, 2026, 09:05 UTC

1 42517U 70025RX  26256.37848651 -.00000029  00000-0  31406-4 0  9996
2 42517 100.2241 311.5981 0091443 266.9038  92.1624 13.42552853628530

Acompanhe THORAD AGENA D DEB em tempo real com AllMySat

Download on the App Store